This is the latest recevied weather packets stored in our database for station/object K4OAM-13. If no packets are shown the sender has not sent any weather packets the latest 10 day(s).
| Time | Temp. | Humidity | Pressure | Rain* | Wind** | Luminosity | Snow |
|---|---|---|---|---|---|---|---|
| 1778144760 | 3.33° C | 84% | 1018.6 hPa | - | - | - | - |
| 1778144160 | 3.33° C | 84% | 1018.4 hPa | - | - | - | - |
| 1778143559 | 3.33° C | 80% | 1018.3 hPa | - | - | - | - |
| 1778142959 | 3.89° C | 81% | 1018.2 hPa | - | - | - | - |
| 1778142359 | 3.89° C | 84% | 1018.4 hPa | - | - | - | - |
| 1778141760 | 3.33° C | 85% | 1018.5 hPa | - | - | - | - |
| 1778141159 | 3.89° C | 83% | 1018.5 hPa | - | - | - | - |
| 1778140559 | 3.89° C | 86% | 1018.3 hPa | - | - | - | - |
| 1778139960 | 3.89° C | 84% | 1018.3 hPa | - | - | - | - |
| 1778139359 | 3.89° C | 85% | 1018.1 hPa | - | - | - | - |
| 1778138759 | 3.89° C | 84% | 1018.3 hPa | - | - | - | - |
| 1778138159 | 3.89° C | 85% | 1018.5 hPa | - | - | - | - |
| 1778137559 | 3.89° C | 84% | 1018.6 hPa | - | - | - | - |
| 1778136959 | 4.44° C | 84% | 1018.2 hPa | - | - | - | - |
| 1778136360 | 3.89° C | 86% | 1018.3 hPa | - | - | - | - |
| 1778135759 | 4.44° C | 87% | 1018.5 hPa | - | - | - | - |
| 1778135159 | 4.44° C | 89% | 1018.2 hPa | - | - | - | - |
| 1778134559 | 4.44° C | 88% | 1018.4 hPa | - | - | - | - |
| 1778133959 | 4.44° C | 89% | 1018.2 hPa | - | - | - | - |
| 1778133362 | 4.44° C | 90% | 1018.2 hPa | - | - | - | - |
| 1778132759 | 4.44° C | 90% | 1018.3 hPa | - | - | - | - |
| 1778132160 | 4.44° C | 91% | 1018.1 hPa | - | - | - | - |
| 1778131559 | 4.44° C | 90% | 1018.2 hPa | - | - | - | - |
| 1778130959 | 4.44° C | 89% | 1018.1 hPa | - | - | - | - |
| 1778130360 | 4.44° C | 89% | 1018 hPa | - | - | - | - |
* Rain since midnight (hover to see other rain measurements)
** Current wind speed in m/s (hover to see current wind gust speed)